Time,TemperatureF,DewpointF,PressureIn,WindDirection,WindDirectionDegrees,WindSpeedMPH,WindSpeedGustMPH,Humidity,HourlyPrecipIn,Conditions,Clouds,dailyrainin,SoftwareType,DateUTC
2013-05-27 00:01:00,53.8,49.2,30.24,ENE,65,0.0,25.8,84,4.33,,,0.00,VWS V13.01,2013-05-27 04:01:00,
2013-05-27 00:06:00,53.6,49.1,30.24,ENE,65,0.0,25.8,85,4.33,,,0.00,VWS V13.01,2013-05-27 04:06:00,
2013-05-27 00:11:00,53.6,49.3,30.24,ENE,65,0.0,25.8,85,4.33,,,0.00,VWS V13.01,2013-05-27 04:11:00,
2013-05-27 00:16:00,53.5,49.3,30.24,ENE,65,0.0,25.8,86,4.33,,,0.00,VWS V13.01,2013-05-27 04:16:00,
2013-05-27 00:21:00,53.5,49.5,30.24,ENE,65,0.0,25.8,86,4.33,,,0.00,VWS V13.01,2013-05-27 04:21:00,
2013-05-27 00:26:00,53.2,49.4,30.24,ENE,65,0.0,25.8,87,4.33,,,0.00,VWS V13.01,2013-05-27 04:26:00,
2013-05-27 00:31:00,53.0,49.3,30.24,ENE,65,0.0,25.8,87,4.33,,,0.00,VWS V13.01,2013-05-27 04:31:00,
2013-05-27 00:36:00,52.8,49.1,30.24,ENE,65,0.0,25.8,87,4.33,,,0.00,VWS V13.01,2013-05-27 04:36:00,
2013-05-27 00:41:00,52.5,49.0,30.24,ENE,65,0.0,25.8,88,4.33,,,0.00,VWS V13.01,2013-05-27 04:41:00,
2013-05-27 00:46:00,52.4,48.9,30.25,ENE,65,0.0,25.8,88,4.33,,,0.00,VWS V13.01,2013-05-27 04:46:00,
2013-05-27 00:51:00,52.3,48.8,30.25,ENE,65,0.0,25.8,88,4.33,,,0.00,VWS V13.01,2013-05-27 04:51:00,
2013-05-27 00:56:00,52.1,48.6,30.25,ENE,65,0.0,25.8,88,4.33,,,0.00,VWS V13.01,2013-05-27 04:56:00,
2013-05-27 01:00:00,61.8,54.3,30.23,West,274,3.3,25.8,76,4.33,,,0.00,VWS V13.01,2013-05-27 05:00:00,
2013-05-27 01:01:00,52.1,48.7,30.25,ENE,65,0.0,25.8,88,4.33,,,0.00,VWS V13.01,2013-05-27 05:01:00,
2013-05-27 01:06:00,51.9,48.6,30.25,ENE,65,0.0,25.8,88,4.33,,,0.00,VWS V13.01,2013-05-27 05:06:00,
2013-05-27 01:11:00,51.8,48.6,30.25,ENE,65,0.0,25.8,89,4.33,,,0.00,VWS V13.01,2013-05-27 05:11:00,
2013-05-27 01:16:00,51.6,48.5,30.25,ENE,65,0.0,25.8,89,4.33,,,0.00,VWS V13.01,2013-05-27 05:16:00,
2013-05-27 01:21:00,51.2,48.3,30.25,ENE,65,0.0,25.8,90,4.33,,,0.00,VWS V13.01,2013-05-27 05:21:00,
2013-05-27 01:26:00,51.0,48.2,30.25,ENE,65,0.0,25.8,90,4.33,,,0.00,VWS V13.01,2013-05-27 05:26:00,
2013-05-27 01:31:00,51.0,48.3,30.25,ENE,65,0.0,25.8,90,4.33,,,0.00,VWS V13.01,2013-05-27 05:31:00,
2013-05-27 01:36:00,50.8,48.1,30.25,ENE,65,0.0,25.8,90,4.33,,,0.00,VWS V13.01,2013-05-27 05:36:00,
2013-05-27 01:41:00,50.5,47.8,30.25,ENE,65,0.0,25.8,90,4.33,,,0.00,VWS V13.01,2013-05-27 05:41:00,
2013-05-27 01:46:00,50.4,47.8,30.26,ENE,65,0.0,25.8,91,4.33,,,0.00,VWS V13.01,2013-05-27 05:46:00,
2013-05-27 01:51:00,50.3,47.8,30.25,ENE,65,0.0,25.8,91,4.33,,,0.00,VWS V13.01,2013-05-27 05:51:00,
2013-05-27 01:56:00,50.4,48.1,30.25,ENE,65,0.0,25.8,92,4.33,,,0.00,VWS V13.01,2013-05-27 05:56:00,
2013-05-27 02:01:00,50.2,48.0,30.25,ENE,65,0.0,25.8,92,4.33,,,0.00,VWS V13.01,2013-05-27 06:01:00,
2013-05-27 02:06:00,50.1,47.7,30.25,ENE,65,0.0,25.8,92,4.33,,,0.00,VWS V13.01,2013-05-27 06:06:00,
2013-05-27 02:11:00,50.0,47.6,30.26,ENE,65,0.0,25.8,92,4.33,,,0.00,VWS V13.01,2013-05-27 06:11:00,
2013-05-27 02:15:00,49.9,47.7,30.26,ENE,65,0.0,25.8,92,4.33,,,0.00,VWS V13.01,2013-05-27 06:15:00,
2013-05-27 02:20:00,49.8,47.7,30.26,ENE,65,0.0,25.8,92,4.33,,,0.00,VWS V13.01,2013-05-27 06:20:00,
2013-05-27 02:25:00,49.8,47.8,30.26,ENE,65,0.0,25.8,93,4.33,,,0.00,VWS V13.01,2013-05-27 06:25:00,
2013-05-27 02:30:00,49.7,47.7,30.26,ENE,65,0.0,25.8,93,4.33,,,0.00,VWS V13.01,2013-05-27 06:30:00,
2013-05-27 02:35:00,49.6,47.7,30.26,ENE,65,0.0,25.8,93,4.33,,,0.00,VWS V13.01,2013-05-27 06:35:00,
2013-05-27 02:40:00,49.4,47.2,30.26,ENE,65,0.0,25.8,92,4.33,,,0.00,VWS V13.01,2013-05-27 06:40:00,
2013-05-27 02:45:00,49.6,47.6,30.26,ENE,65,0.0,25.8,93,4.33,,,0.00,VWS V13.01,2013-05-27 06:45:00,
2013-05-27 02:50:00,49.6,47.7,30.26,ENE,65,0.0,25.8,93,4.33,,,0.00,VWS V13.01,2013-05-27 06:50:00,
2013-05-27 02:55:00,49.6,47.7,30.26,ENE,65,0.0,25.8,93,4.33,,,0.00,VWS V13.01,2013-05-27 06:55:00,
2013-05-27 03:00:00,49.4,47.5,30.26,ENE,65,0.0,25.8,93,4.33,,,0.00,VWS V13.01,2013-05-27 07:00:00,
2013-05-27 03:05:00,49.1,47.3,30.26,ENE,65,0.0,25.8,94,4.33,,,0.00,VWS V13.01,2013-05-27 07:05:00,
2013-05-27 03:10:00,49.1,47.4,30.26,ENE,65,0.0,25.8,94,4.33,,,0.00,VWS V13.01,2013-05-27 07:10:00,
2013-05-27 03:15:00,48.9,47.3,30.26,ENE,65,0.0,25.8,94,4.33,,,0.00,VWS V13.01,2013-05-27 07:15:00,
2013-05-27 03:20:00,48.7,47.2,30.26,ENE,65,0.0,25.8,95,4.33,,,0.00,VWS V13.01,2013-05-27 07:20:00,
2013-05-27 03:25:00,48.5,47.2,30.26,ENE,65,0.0,25.8,95,4.33,,,0.00,VWS V13.01,2013-05-27 07:25:00,
2013-05-27 03:30:00,48.6,47.3,30.26,ENE,65,0.0,25.8,95,4.33,,,0.00,VWS V13.01,2013-05-27 07:30:00,
2013-05-27 03:35:00,48.3,47.0,30.26,ENE,65,0.0,25.8,95,4.33,,,0.00,VWS V13.01,2013-05-27 07:35:00,
2013-05-27 03:40:00,48.2,47.0,30.26,ENE,65,0.0,25.8,95,4.33,,,0.00,VWS V13.01,2013-05-27 07:40:00,
2013-05-27 03:45:00,48.1,46.8,30.26,ENE,65,0.0,25.8,95,4.33,,,0.00,VWS V13.01,2013-05-27 07:45:00,
2013-05-27 03:50:00,47.8,46.5,30.26,ENE,65,0.0,25.8,95,4.33,,,0.00,VWS V13.01,2013-05-27 07:50:00,
2013-05-27 04:53:00,47.4,46.2,30.27,WNW,285,0.0,25.8,96,4.33,,,0.00,VWS V13.01,2013-05-27 08:53:00,
2013-05-27 04:58:00,47.5,46.3,30.27,WNW,285,0.0,25.8,96,4.33,,,0.00,VWS V13.01,2013-05-27 08:58:00,
2013-05-27 05:03:00,47.4,46.2,30.27,WNW,285,0.0,25.8,96,4.33,,,0.00,VWS V13.01,2013-05-27 09:03:00,
2013-05-27 05:08:00,47.4,46.2,30.27,WNW,285,0.0,25.8,96,4.33,,,0.00,VWS V13.01,2013-05-27 09:08:00,
2013-05-27 05:13:00,47.3,46.1,30.27,WNW,285,0.0,25.8,96,4.33,,,0.00,VWS V13.01,2013-05-27 09:13:00,
2013-05-27 05:18:00,47.3,46.1,30.27,WNW,285,0.0,25.8,96,4.33,,,0.00,VWS V13.01,2013-05-27 09:18:00,
2013-05-27 05:23:00,47.3,46.1,30.27,WNW,285,0.0,25.8,96,4.33,,,0.00,VWS V13.01,2013-05-27 09:23:00,
2013-05-27 05:28:00,47.3,46.0,30.27,WNW,285,0.0,25.8,95,4.33,,,0.00,VWS V13.01,2013-05-27 09:28:00,
2013-05-27 05:33:00,47.2,45.9,30.27,WNW,285,0.0,25.8,95,4.33,,,0.00,VWS V13.01,2013-05-27 09:33:00,
2013-05-27 05:38:00,47.2,45.9,30.27,WNW,285,0.0,25.8,95,4.33,,,0.00,VWS V13.01,2013-05-27 09:38:00,
2013-05-27 05:43:00,47.2,46.0,30.27,WNW,285,0.0,25.8,95,4.33,,,0.00,VWS V13.01,2013-05-27 09:43:00,
2013-05-27 05:48:00,47.2,46.0,30.27,WNW,285,0.0,25.8,95,4.33,,,0.00,VWS V13.01,2013-05-27 09:48:00,
2013-05-27 05:52:00,47.4,46.1,30.27,WNW,285,0.0,25.8,95,4.33,,,0.00,VWS V13.01,2013-05-27 09:52:00,
2013-05-27 05:57:00,47.4,46.1,30.28,WNW,285,0.0,25.8,95,4.33,,,0.00,VWS V13.01,2013-05-27 09:57:00,
2013-05-27 06:02:00,47.6,46.2,30.28,WNW,285,0.0,25.8,95,4.33,,,0.00,VWS V13.01,2013-05-27 10:02:00,
2013-05-27 06:07:00,48.0,46.4,30.28,WNW,285,0.0,25.8,94,4.33,,,0.00,VWS V13.01,2013-05-27 10:07:00,
2013-05-27 06:12:00,48.3,46.6,30.28,WNW,285,0.0,25.8,94,4.33,,,0.00,VWS V13.01,2013-05-27 10:12:00,
2013-05-27 06:17:00,48.7,46.9,30.28,WNW,285,0.0,25.8,93,4.33,,,0.00,VWS V13.01,2013-05-27 10:17:00,
2013-05-27 06:22:00,49.5,47.4,30.28,WNW,285,0.0,25.8,92,4.33,,,0.00,VWS V13.01,2013-05-27 10:22:00,
2013-05-27 06:27:00,50.4,47.9,30.28,West,278,0.0,25.8,91,4.33,,,0.00,VWS V13.01,2013-05-27 10:27:00,
2013-05-27 06:32:00,51.3,48.2,30.28,West,278,0.0,25.8,89,4.33,,,0.00,VWS V13.01,2013-05-27 10:32:00,
2013-05-27 06:37:00,52.4,48.7,30.28,West,278,0.0,25.8,87,4.33,,,0.00,VWS V13.01,2013-05-27 10:37:00,
2013-05-27 06:42:00,53.5,49.1,30.28,West,278,0.0,25.8,85,4.33,,,0.00,VWS V13.01,2013-05-27 10:42:00,
2013-05-27 06:47:00,54.5,49.3,30.28,West,278,0.0,25.8,82,4.33,,,0.00,VWS V13.01,2013-05-27 10:47:00,
2013-05-27 06:52:00,55.7,50.4,30.29,West,278,0.0,25.8,82,4.33,,,0.00,VWS V13.01,2013-05-27 10:52:00,
2013-05-27 06:57:00,57.0,50.8,30.28,West,278,0.0,25.8,80,4.33,,,0.00,VWS V13.01,2013-05-27 10:57:00,
2013-05-27 07:02:00,58.0,51.3,30.29,West,278,0.0,25.8,78,4.33,,,0.00,VWS V13.01,2013-05-27 11:02:00,
2013-05-27 07:07:00,58.7,51.5,30.28,West,278,0.0,25.8,77,4.33,,,0.00,VWS V13.01,2013-05-27 11:07:00,
2013-05-27 07:12:00,59.4,51.7,30.28,West,278,0.0,25.8,76,4.33,,,0.00,VWS V13.01,2013-05-27 11:12:00,
2013-05-27 07:17:00,60.4,52.2,30.28,West,278,0.0,25.8,74,4.33,,,0.00,VWS V13.01,2013-05-27 11:17:00,
2013-05-27 07:22:00,61.1,52.2,30.28,West,278,0.0,25.8,72,4.33,,,0.00,VWS V13.01,2013-05-27 11:22:00,
2013-05-27 07:27:00,61.5,52.0,30.29,West,278,0.0,25.8,71,4.33,,,0.00,VWS V13.01,2013-05-27 11:27:00,
2013-05-27 07:32:00,61.7,52.0,30.29,West,278,0.0,25.8,70,4.33,,,0.00,VWS V13.01,2013-05-27 11:32:00,
2013-05-27 07:37:00,62.0,52.1,30.28,West,278,0.0,25.8,70,4.33,,,0.00,VWS V13.01,2013-05-27 11:37:00,
2013-05-27 07:42:00,62.6,52.0,30.29,West,278,0.0,25.8,68,4.33,,,0.00,VWS V13.01,2013-05-27 11:42:00,
2013-05-27 07:47:00,62.7,51.9,30.29,WNW,292,0.0,25.8,68,4.33,,,0.00,VWS V13.01,2013-05-27 11:47:00,
2013-05-27 07:52:00,62.4,52.0,30.29,WNW,300,2.5,25.8,69,4.33,,,0.00,VWS V13.01,2013-05-27 11:52:00,
2013-05-27 07:57:00,62.6,51.9,30.29,WNW,294,4.0,25.8,68,4.33,,,0.00,VWS V13.01,2013-05-27 11:57:00,
2013-05-27 08:02:00,63.6,51.8,30.29,NW,318,4.0,25.8,65,4.33,,,0.00,VWS V13.01,2013-05-27 12:02:00,
2013-05-27 08:07:00,64.3,51.8,30.29,WNW,287,0.0,25.8,64,4.33,,,0.00,VWS V13.01,2013-05-27 12:07:00,
2013-05-27 08:12:00,65.2,53.4,30.29,NW,311,3.2,25.8,66,4.33,,,0.00,VWS V13.01,2013-05-27 12:12:00,
2013-05-27 08:17:00,65.6,53.7,30.29,WNW,295,2.1,25.8,66,4.33,,,0.00,VWS V13.01,2013-05-27 12:17:00,
2013-05-27 08:22:00,66.2,54.7,30.29,NW,323,3.8,25.8,66,4.33,,,0.00,VWS V13.01,2013-05-27 12:22:00,
2013-05-27 08:27:00,65.9,53.9,30.29,WNW,294,3.6,25.8,65,4.33,,,0.00,VWS V13.01,2013-05-27 12:27:00,
2013-05-27 08:32:00,66.0,53.9,30.29,WNW,295,5.2,25.8,65,4.33,,,0.00,VWS V13.01,2013-05-27 12:32:00,
2013-05-27 08:37:00,66.2,53.9,30.29,NNW,347,0.0,25.8,65,4.33,,,0.00,VWS V13.01,2013-05-27 12:37:00,
2013-05-27 08:42:00,66.9,54.2,30.29,WNW,283,0.9,25.8,64,4.33,,,0.00,VWS V13.01,2013-05-27 12:42:00,
2013-05-27 08:47:00,67.1,54.0,30.29,NW,309,1.7,25.8,63,4.33,,,0.00,VWS V13.01,2013-05-27 12:47:00,
2013-05-27 08:52:00,67.4,54.6,30.29,NNW,335,2.5,25.8,64,4.33,,,0.00,VWS V13.01,2013-05-27 12:52:00,
2013-05-27 08:57:00,68.1,54.8,30.29,NW,308,3.1,25.8,62,4.33,,,0.00,VWS V13.01,2013-05-27 12:57:00,
2013-05-27 09:02:00,68.4,54.1,30.29,WNW,300,3.2,25.8,60,4.33,,,0.00,VWS V13.01,2013-05-27 13:02:00,
2013-05-27 09:07:00,68.6,54.9,30.29,NNW,338,0.0,25.8,62,4.33,,,0.00,VWS V13.01,2013-05-27 13:07:00,
2013-05-27 09:12:00,68.8,54.3,30.29,WNW,292,0.0,25.8,60,4.33,,,0.00,VWS V13.01,2013-05-27 13:12:00,
2013-05-27 09:17:00,69.3,53.5,30.29,NNW,342,0.0,25.8,57,4.33,,,0.00,VWS V13.01,2013-05-27 13:17:00,
2013-05-27 09:22:00,69.5,53.4,30.29,WNW,300,5.3,25.8,56,4.33,,,0.00,VWS V13.01,2013-05-27 13:22:00,
2013-05-27 09:27:00,69.5,52.6,30.28,NNW,333,6.2,25.8,55,4.33,,,0.00,VWS V13.01,2013-05-27 13:27:00,
2013-05-27 09:32:00,69.2,51.7,30.29,NW,305,5.5,25.8,54,4.33,,,0.00,VWS V13.01,2013-05-27 13:32:00,
2013-05-27 09:37:00,69.1,51.7,30.28,WNW,290,0.0,25.8,54,4.33,,,0.00,VWS V13.01,2013-05-27 13:37:00,
2013-05-27 09:42:00,69.3,52.0,30.28,NW,308,3.5,25.8,54,4.33,,,0.00,VWS V13.01,2013-05-27 13:42:00,
2013-05-27 09:47:00,69.5,52.2,30.28,WNW,288,8.7,25.8,54,4.33,,,0.00,VWS V13.01,2013-05-27 13:47:00,
2013-05-27 09:52:00,69.4,51.5,30.29,NW,308,3.9,25.8,53,4.33,,,0.00,VWS V13.01,2013-05-27 13:52:00,
2013-05-27 09:57:00,70.0,51.7,30.28,West,273,7.5,25.8,52,4.33,,,0.00,VWS V13.01,2013-05-27 13:57:00,
2013-05-27 10:02:00,69.8,51.2,30.29,WNW,290,5.3,25.8,52,4.33,,,0.00,VWS V13.01,2013-05-27 14:02:00,
2013-05-27 10:07:00,70.2,51.8,30.29,West,259,0.0,25.8,52,4.33,,,0.00,VWS V13.01,2013-05-27 14:07:00,
2013-05-27 10:12:00,70.5,51.8,30.29,NW,319,3.7,25.8,52,4.33,,,0.00,VWS V13.01,2013-05-27 14:12:00,
2013-05-27 10:17:00,71.0,52.1,30.29,West,270,4.0,25.8,51,4.33,,,0.00,VWS V13.01,2013-05-27 14:17:00,
2013-05-27 10:22:00,71.3,51.7,30.29,West,276,5.5,25.8,50,4.33,,,0.00,VWS V13.01,2013-05-27 14:22:00,
2013-05-27 10:27:00,70.7,51.8,30.28,NW,319,4.7,25.8,51,4.33,,,0.00,VWS V13.01,2013-05-27 14:27:00,
2013-05-27 10:32:00,70.0,51.3,30.28,NNW,329,8.2,25.8,52,4.33,,,0.00,VWS V13.01,2013-05-27 14:32:00,
2013-05-27 10:37:00,70.2,51.2,30.28,WNW,295,0.0,25.8,51,4.33,,,0.00,VWS V13.01,2013-05-27 14:37:00,
2013-05-27 10:42:00,70.5,51.5,30.28,North,349,4.0,25.8,51,4.33,,,0.00,VWS V13.01,2013-05-27 14:42:00,
2013-05-27 10:47:00,71.0,51.3,30.28,NNW,342,2.7,25.8,50,4.33,,,0.00,VWS V13.01,2013-05-27 14:47:00,
2013-05-27 10:52:00,71.5,51.6,30.28,West,274,8.3,25.8,49,4.33,,,0.00,VWS V13.01,2013-05-27 14:52:00,
2013-05-27 10:57:00,71.2,51.5,30.28,NW,308,5.0,25.8,50,4.33,,,0.00,VWS V13.01,2013-05-27 14:57:00,
2013-05-27 11:02:00,71.0,51.4,30.28,West,264,2.2,25.8,50,4.33,,,0.00,VWS V13.01,2013-05-27 15:02:00,
2013-05-27 11:07:00,71.3,51.9,30.28,West,273,1.9,25.8,50,4.33,,,0.00,VWS V13.01,2013-05-27 15:07:00,
2013-05-27 11:12:00,71.6,51.6,30.28,WNW,294,7.1,25.8,49,4.33,,,0.00,VWS V13.01,2013-05-27 15:12:00,
2013-05-27 11:17:00,72.0,52.6,30.28,West,278,2.1,25.8,50,4.33,,,0.00,VWS V13.01,2013-05-27 15:17:00,
2013-05-27 11:22:00,71.6,52.1,30.28,NW,316,8.0,25.8,50,4.33,,,0.00,VWS V13.01,2013-05-27 15:22:00,
2013-05-27 11:27:00,71.8,51.6,30.28,West,264,4.5,25.8,49,4.33,,,0.00,VWS V13.01,2013-05-27 15:27:00,
2013-05-27 11:32:00,71.4,51.7,30.28,West,278,5.6,25.8,50,4.33,,,0.00,VWS V13.01,2013-05-27 15:32:00,
2013-05-27 11:37:00,71.7,51.8,30.27,WNW,284,3.9,25.8,50,4.33,,,0.00,VWS V13.01,2013-05-27 15:37:00,
2013-05-27 11:41:00,72.5,52.1,30.27,NNW,329,4.4,25.8,49,4.33,,,0.00,VWS V13.01,2013-05-27 15:41:00,
2013-05-27 11:46:00,72.8,52.8,30.27,West,274,3.9,25.8,50,4.33,,,0.00,VWS V13.01,2013-05-27 15:46:00,
2013-05-27 11:51:00,72.4,52.5,30.26,WNW,290,1.4,25.8,50,4.33,,,0.00,VWS V13.01,2013-05-27 15:51:00,
2013-05-27 11:56:00,72.6,52.3,30.27,NW,311,7.8,25.8,49,4.33,,,0.00,VWS V13.01,2013-05-27 15:56:00,
2013-05-27 12:01:00,72.8,52.4,30.27,NNW,329,3.0,25.8,49,4.33,,,0.00,VWS V13.01,2013-05-27 16:01:00,
2013-05-27 12:06:00,73.0,52.6,30.26,North,356,6.8,25.8,49,4.33,,,0.00,VWS V13.01,2013-05-27 16:06:00,
2013-05-27 12:11:00,73.1,52.7,30.26,WNW,301,3.1,25.8,49,4.33,,,0.00,VWS V13.01,2013-05-27 16:11:00,
2013-05-27 12:16:00,73.1,52.8,30.26,West,266,7.6,25.8,49,4.33,,,0.00,VWS V13.01,2013-05-27 16:16:00,
2013-05-27 12:21:00,72.1,52.2,30.26,WNW,292,6.0,25.8,50,4.33,,,0.00,VWS V13.01,2013-05-27 16:21:00,
2013-05-27 12:26:00,72.4,51.5,30.26,West,274,3.9,25.8,48,4.33,,,0.00,VWS V13.01,2013-05-27 16:26:00,
2013-05-27 12:31:00,72.7,51.8,30.26,NNW,340,8.6,25.8,48,4.33,,,0.00,VWS V13.01,2013-05-27 16:31:00,
2013-05-27 12:36:00,73.3,52.0,30.26,North,359,2.9,25.8,47,4.33,,,0.00,VWS V13.01,2013-05-27 16:36:00,
2013-05-27 12:41:00,73.8,52.8,30.25,WNW,288,4.1,25.8,48,4.33,,,0.00,VWS V13.01,2013-05-27 16:41:00,
2013-05-27 12:46:00,74.1,52.5,30.25,WSW,256,3.5,25.8,47,4.33,,,0.00,VWS V13.01,2013-05-27 16:46:00,
2013-05-27 12:51:00,73.8,52.8,30.25,West,276,5.2,25.8,48,4.33,,,0.00,VWS V13.01,2013-05-27 16:51:00,
2013-05-27 12:56:00,73.8,53.2,30.24,NNW,333,8.0,25.8,49,4.33,,,0.00,VWS V13.01,2013-05-27 16:56:00,
2013-05-27 13:01:00,73.7,52.8,30.24,NW,307,3.5,25.8,48,4.33,,,0.00,VWS V13.01,2013-05-27 17:01:00,
2013-05-27 13:06:00,73.7,51.5,30.24,NW,323,5.8,25.8,46,4.33,,,0.00,VWS V13.01,2013-05-27 17:06:00,
2013-05-27 13:11:00,73.7,52.6,30.24,West,281,5.7,25.8,48,4.33,,,0.00,VWS V13.01,2013-05-27 17:11:00,
2013-05-27 13:16:00,73.9,52.5,30.23,West,273,4.2,25.8,47,4.33,,,0.00,VWS V13.01,2013-05-27 17:16:00,
2013-05-27 13:21:00,74.3,52.3,30.23,WNW,290,6.3,25.8,46,4.33,,,0.00,VWS V13.01,2013-05-27 17:21:00,
2013-05-27 13:26:00,74.2,52.1,30.23,North,8,1.3,25.8,46,4.33,,,0.00,VWS V13.01,2013-05-27 17:26:00,
2013-05-27 13:31:00,74.4,52.8,30.23,North,11,2.1,25.8,47,4.33,,,0.00,VWS V13.01,2013-05-27 17:31:00,
2013-05-27 13:36:00,74.4,52.9,30.23,WNW,284,3.7,25.8,47,4.33,,,0.00,VWS V13.01,2013-05-27 17:36:00,
2013-05-27 13:41:00,74.1,53.0,30.22,East,93,3.2,25.8,48,4.33,,,0.00,VWS V13.01,2013-05-27 17:41:00,
2013-05-27 13:46:00,73.9,53.6,30.23,West,259,0.0,25.8,49,4.33,,,0.00,VWS V13.01,2013-05-27 17:46:00,
2013-05-27 13:51:00,73.7,53.3,30.22,NNW,346,0.0,25.8,49,4.33,,,0.00,VWS V13.01,2013-05-27 17:51:00,
2013-05-27 13:56:00,73.8,54.4,30.22,NE,35,1.2,25.8,51,4.33,,,0.00,VWS V13.01,2013-05-27 17:56:00,
2013-05-27 14:01:00,73.9,52.8,30.22,WNW,297,7.3,25.8,48,4.33,,,0.00,VWS V13.01,2013-05-27 18:01:00,
2013-05-27 14:06:00,74.2,53.8,30.22,NW,308,2.8,25.8,49,4.33,,,0.00,VWS V13.01,2013-05-27 18:06:00,
2013-05-27 14:11:00,74.3,53.1,30.21,NNW,338,6.5,25.8,48,4.33,,,0.00,VWS V13.01,2013-05-27 18:11:00,
2013-05-27 14:16:00,74.4,53.8,30.22,NW,307,3.0,25.8,49,4.33,,,0.00,VWS V13.01,2013-05-27 18:16:00,
2013-05-27 14:21:00,74.6,53.2,30.21,WNW,290,4.0,25.8,47,4.33,,,0.00,VWS V13.01,2013-05-27 18:21:00,
2013-05-27 14:26:00,74.4,53.0,30.21,WSW,257,3.2,25.8,47,4.33,,,0.00,VWS V13.01,2013-05-27 18:26:00,
2013-05-27 14:31:00,74.9,53.5,30.21,NNW,339,6.6,25.8,47,4.33,,,0.00,VWS V13.01,2013-05-27 18:31:00,
2013-05-27 14:36:00,75.3,53.7,30.21,North,10,4.2,25.8,47,4.33,,,0.00,VWS V13.01,2013-05-27 18:36:00,
2013-05-27 14:41:00,75.2,56.0,30.21,ESE,115,0.0,25.8,51,4.33,,,0.00,VWS V13.01,2013-05-27 18:41:00,
2013-05-27 14:46:00,73.8,54.2,30.20,South,187,2.3,25.8,50,4.33,,,0.00,VWS V13.01,2013-05-27 18:46:00,
2013-05-27 14:51:00,72.6,54.7,30.21,WSW,238,0.0,25.8,53,4.33,,,0.00,VWS V13.01,2013-05-27 18:51:00,
2013-05-27 14:56:00,72.3,54.5,30.21,West,281,2.2,25.8,54,4.33,,,0.00,VWS V13.01,2013-05-27 18:56:00,
2013-05-27 15:01:00,72.4,56.4,30.20,WNW,301,4.0,25.8,57,4.33,,,0.00,VWS V13.01,2013-05-27 19:01:00,
2013-05-27 15:06:00,72.8,53.5,30.20,West,277,7.7,25.8,51,4.33,,,0.00,VWS V13.01,2013-05-27 19:06:00,
2013-05-27 15:11:00,73.7,52.8,30.20,WNW,292,1.2,25.8,48,4.33,,,0.00,VWS V13.01,2013-05-27 19:11:00,
2013-05-27 15:16:00,74.3,53.4,30.20,NW,322,5.9,25.8,48,4.33,,,0.00,VWS V13.01,2013-05-27 19:16:00,
2013-05-27 15:21:00,74.6,53.5,30.20,NNW,338,3.0,25.8,48,4.33,,,0.00,VWS V13.01,2013-05-27 19:21:00,
2013-05-27 15:26:00,74.7,53.2,30.20,NNW,328,9.7,25.8,47,4.33,,,0.00,VWS V13.01,2013-05-27 19:26:00,
2013-05-27 15:31:00,75.0,53.4,30.20,NNW,335,5.3,25.8,47,4.33,,,0.00,VWS V13.01,2013-05-27 19:31:00,
2013-05-27 15:36:00,75.6,53.9,30.20,West,266,3.2,25.8,47,4.33,,,0.00,VWS V13.01,2013-05-27 19:36:00,
2013-05-27 15:41:00,75.8,53.9,30.19,West,274,4.5,25.8,47,4.33,,,0.00,VWS V13.01,2013-05-27 19:41:00,
2013-05-27 15:46:00,75.5,53.9,30.19,WNW,283,5.5,25.8,47,4.33,,,0.00,VWS V13.01,2013-05-27 19:46:00,
2013-05-27 15:51:00,75.2,54.4,30.19,WNW,302,4.8,25.8,48,4.33,,,0.00,VWS V13.01,2013-05-27 19:51:00,
2013-05-27 16:52:00,72.2,55.4,30.18,West,276,3.4,25.8,56,4.33,,,0.00,VWS V13.01,2013-05-27 20:52:00,
2013-05-27 16:57:00,73.1,54.9,30.17,WNW,294,7.3,25.8,53,4.33,,,0.00,VWS V13.01,2013-05-27 20:57:00,
2013-05-27 17:02:00,73.6,54.5,30.18,WNW,301,4.5,25.8,51,4.33,,,0.00,VWS V13.01,2013-05-27 21:02:00,
2013-05-27 17:07:00,73.5,54.5,30.17,WSW,257,0.7,25.8,51,4.33,,,0.00,VWS V13.01,2013-05-27 21:07:00,
2013-05-27 17:12:00,73.6,54.3,30.17,WNW,295,4.8,25.8,51,4.33,,,0.00,VWS V13.01,2013-05-27 21:12:00,
2013-05-27 17:17:00,73.3,54.4,30.17,WNW,291,3.4,25.8,52,4.33,,,0.00,VWS V13.01,2013-05-27 21:17:00,
2013-05-27 17:22:00,73.8,54.5,30.17,WNW,292,7.8,25.8,51,4.33,,,0.00,VWS V13.01,2013-05-27 21:22:00,
2013-05-27 17:27:00,73.6,54.0,30.18,ENE,63,6.5,25.8,50,4.33,,,0.00,VWS V13.01,2013-05-27 21:27:00,
2013-05-27 17:32:00,73.6,54.3,30.18,NW,308,6.8,25.8,51,4.33,,,0.00,VWS V13.01,2013-05-27 21:32:00,
2013-05-27 17:37:00,74.0,54.0,30.18,WNW,292,3.4,25.8,50,4.33,,,0.00,VWS V13.01,2013-05-27 21:37:00,
2013-05-27 17:42:00,73.8,53.1,30.18,West,281,3.4,25.8,48,4.33,,,0.00,VWS V13.01,2013-05-27 21:42:00,
2013-05-27 17:47:00,73.9,53.6,30.18,West,270,5.8,25.8,49,4.33,,,0.00,VWS V13.01,2013-05-27 21:47:00,
2013-05-27 17:52:00,73.6,53.3,30.18,North,352,2.5,25.8,49,4.33,,,0.00,VWS V13.01,2013-05-27 21:52:00,
2013-05-27 17:57:00,73.6,53.1,30.18,NW,312,1.7,25.8,49,4.33,,,0.00,VWS V13.01,2013-05-27 21:57:00,
2013-05-27 18:02:00,73.7,53.1,30.18,North,350,4.3,25.8,48,4.33,,,0.00,VWS V13.01,2013-05-27 22:02:00,
2013-05-27 18:07:00,73.3,52.8,30.18,NNW,336,1.9,25.8,49,4.33,,,0.00,VWS V13.01,2013-05-27 22:07:00,
2013-05-27 18:12:00,73.4,53.3,30.18,NW,316,1.5,25.8,49,4.33,,,0.00,VWS V13.01,2013-05-27 22:12:00,
2013-05-27 18:17:00,73.4,53.5,30.18,NW,305,5.4,25.8,50,4.33,,,0.00,VWS V13.01,2013-05-27 22:17:00,
2013-05-27 18:22:00,73.4,53.3,30.18,WNW,297,1.9,25.8,49,4.33,,,0.00,VWS V13.01,2013-05-27 22:22:00,
2013-05-27 18:27:00,73.3,53.7,30.18,WNW,295,5.0,25.8,50,4.33,,,0.00,VWS V13.01,2013-05-27 22:27:00,
2013-05-27 18:32:00,73.0,53.5,30.18,NW,315,2.9,25.8,50,4.33,,,0.00,VWS V13.01,2013-05-27 22:32:00,
2013-05-27 18:37:00,72.8,53.4,30.17,North,350,1.1,25.8,51,4.33,,,0.00,VWS V13.01,2013-05-27 22:37:00,
2013-05-27 18:42:00,72.9,54.1,30.18,WNW,302,4.5,25.8,52,4.33,,,0.00,VWS V13.01,2013-05-27 22:42:00,
2013-05-27 18:47:00,72.6,53.6,30.18,NW,322,0.0,25.8,51,4.33,,,0.00,VWS V13.01,2013-05-27 22:47:00,
2013-05-27 18:52:00,72.8,53.8,30.18,NNW,330,0.7,25.8,51,4.33,,,0.00,VWS V13.01,2013-05-27 22:52:00,
2013-05-27 18:57:00,72.5,54.0,30.18,West,266,0.0,25.8,52,4.33,,,0.00,VWS V13.01,2013-05-27 22:57:00,
2013-05-27 19:02:00,72.6,54.1,30.18,NW,319,1.9,25.8,52,4.33,,,0.00,VWS V13.01,2013-05-27 23:02:00,
2013-05-27 19:07:00,72.1,53.8,30.18,West,266,0.0,25.8,53,4.33,,,0.00,VWS V13.01,2013-05-27 23:07:00,
2013-05-27 19:12:00,72.2,54.1,30.18,WNW,298,1.9,25.8,53,4.33,,,0.00,VWS V13.01,2013-05-27 23:12:00,
2013-05-27 19:17:00,72.1,54.1,30.18,North,3,0.0,25.8,53,4.33,,,0.00,VWS V13.01,2013-05-27 23:17:00,
2013-05-27 19:22:00,71.9,54.3,30.18,North,3,0.0,25.8,54,4.33,,,0.00,VWS V13.01,2013-05-27 23:22:00,
2013-05-27 19:27:00,71.9,54.5,30.18,North,3,0.0,25.8,54,4.33,,,0.00,VWS V13.01,2013-05-27 23:27:00,
2013-05-27 19:32:00,71.8,54.5,30.18,North,3,0.0,25.8,54,4.33,,,0.00,VWS V13.01,2013-05-27 23:32:00,
2013-05-27 19:37:00,71.6,54.9,30.18,WNW,300,3.5,25.8,56,4.33,,,0.00,VWS V13.01,2013-05-27 23:37:00,
2013-05-27 19:42:00,71.1,54.7,30.18,WNW,291,0.0,25.8,56,4.33,,,0.00,VWS V13.01,2013-05-27 23:42:00,
2013-05-27 19:47:00,70.9,54.6,30.18,WNW,300,2.4,25.8,56,4.33,,,0.00,VWS V13.01,2013-05-27 23:47:00,
2013-05-27 19:52:00,70.5,54.2,30.18,NW,323,0.0,25.8,56,4.33,,,0.00,VWS V13.01,2013-05-27 23:52:00,
2013-05-27 19:57:00,70.4,54.4,30.18,NW,323,0.0,25.8,57,4.33,,,0.00,VWS V13.01,2013-05-27 23:57:00,
2013-05-27 20:02:00,69.8,53.8,30.18,WSW,243,0.0,25.8,57,4.33,,,0.00,VWS V13.01,2013-05-28 00:02:00,
2013-05-27 20:07:00,69.7,53.7,30.18,West,266,0.0,25.8,57,4.33,,,0.00,VWS V13.01,2013-05-28 00:07:00,
2013-05-27 20:12:00,69.8,54.0,30.18,West,266,0.0,25.8,57,4.33,,,0.00,VWS V13.01,2013-05-28 00:12:00,
2013-05-27 20:17:00,69.1,53.5,30.18,West,266,0.0,25.8,58,4.33,,,0.00,VWS V13.01,2013-05-28 00:17:00,
2013-05-27 20:22:00,68.7,53.5,30.18,West,266,0.0,25.8,58,4.33,,,0.00,VWS V13.01,2013-05-28 00:22:00,
2013-05-27 20:27:00,68.6,53.9,30.18,West,266,0.0,25.8,59,4.33,,,0.00,VWS V13.01,2013-05-28 00:27:00,
2013-05-27 20:31:00,68.4,54.0,30.18,West,266,0.0,25.8,60,4.33,,,0.00,VWS V13.01,2013-05-28 00:31:00,
2013-05-27 20:36:00,68.0,53.8,30.18,West,266,0.0,25.8,60,4.33,,,0.00,VWS V13.01,2013-05-28 00:36:00,
2013-05-27 20:41:00,67.8,53.9,30.19,West,266,0.0,25.8,61,4.33,,,0.00,VWS V13.01,2013-05-28 00:41:00,
2013-05-27 20:46:00,67.7,54.2,30.19,West,266,0.0,25.8,62,4.33,,,0.00,VWS V13.01,2013-05-28 00:46:00,
2013-05-27 20:51:00,67.3,53.8,30.19,West,266,0.0,25.8,62,4.33,,,0.00,VWS V13.01,2013-05-28 00:51:00,
2013-05-27 20:56:00,67.0,53.8,30.19,West,266,0.0,25.8,62,4.33,,,0.00,VWS V13.01,2013-05-28 00:56:00,
2013-05-27 21:01:00,67.0,54.0,30.19,West,266,0.0,25.8,63,4.33,,,0.00,VWS V13.01,2013-05-28 01:01:00,
2013-05-27 21:06:00,66.5,53.8,30.19,West,266,0.0,25.8,64,4.33,,,0.00,VWS V13.01,2013-05-28 01:06:00,
2013-05-27 21:11:00,66.2,54.1,30.19,West,266,0.0,25.8,65,4.33,,,0.00,VWS V13.01,2013-05-28 01:11:00,
2013-05-27 21:16:00,65.9,53.7,30.20,West,267,2.2,25.8,65,4.33,,,0.00,VWS V13.01,2013-05-28 01:16:00,
2013-05-27 21:21:00,65.9,53.8,30.20,WNW,287,0.7,25.8,65,4.33,,,0.00,VWS V13.01,2013-05-28 01:21:00,
2013-05-27 21:26:00,65.7,53.7,30.20,West,273,0.0,25.8,65,4.33,,,0.00,VWS V13.01,2013-05-28 01:26:00,
2013-05-27 21:31:00,65.9,53.9,30.20,WSW,253,0.0,25.8,65,4.33,,,0.00,VWS V13.01,2013-05-28 01:31:00,
2013-05-27 21:36:00,65.7,53.9,30.20,West,277,0.0,25.8,66,4.33,,,0.00,VWS V13.01,2013-05-28 01:36:00,
2013-05-27 21:41:00,65.8,54.2,30.20,WSW,240,0.0,25.8,66,4.33,,,0.00,VWS V13.01,2013-05-28 01:41:00,
2013-05-27 21:46:00,65.3,54.0,30.20,WSW,242,0.0,25.8,67,4.33,,,0.00,VWS V13.01,2013-05-28 01:46:00,
2013-05-27 21:51:00,65.4,54.2,30.20,NW,309,1.8,25.8,67,4.33,,,0.00,VWS V13.01,2013-05-28 01:51:00,
2013-05-27 21:56:00,65.2,54.3,30.20,West,259,1.1,25.8,68,4.33,,,0.00,VWS V13.01,2013-05-28 01:56:00,
2013-05-27 22:01:00,65.0,54.2,30.20,NW,309,0.0,25.8,68,4.33,,,0.00,VWS V13.01,2013-05-28 02:01:00,
2013-05-27 22:06:00,65.0,54.4,30.20,West,278,0.0,25.8,68,4.33,,,0.00,VWS V13.01,2013-05-28 02:06:00,
2013-05-27 22:11:00,64.6,54.2,30.21,WSW,238,2.5,25.8,69,4.33,,,0.00,VWS V13.01,2013-05-28 02:11:00,
2013-05-27 22:16:00,64.4,54.3,30.20,WSW,249,1.2,25.8,70,4.33,,,0.00,VWS V13.01,2013-05-28 02:16:00,
2013-05-27 22:21:00,64.2,54.5,30.21,WNW,287,0.0,25.8,71,4.33,,,0.00,VWS V13.01,2013-05-28 02:21:00,
2013-05-27 22:26:00,64.0,54.5,30.21,West,263,0.0,25.8,71,4.33,,,0.00,VWS V13.01,2013-05-28 02:26:00,
2013-05-27 22:32:00,63.6,54.2,30.21,WSW,246,0.0,25.8,71,4.33,,,0.00,VWS V13.01,2013-05-28 02:32:00,
2013-05-27 22:36:00,63.5,54.2,30.21,SW,236,1.6,25.8,72,4.33,,,0.00,VWS V13.01,2013-05-28 02:36:00,
2013-05-27 22:41:00,63.4,54.2,30.21,WSW,257,0.0,25.8,72,4.33,,,0.00,VWS V13.01,2013-05-28 02:41:00,
2013-05-27 22:46:00,63.4,54.2,30.21,WSW,250,0.0,25.8,72,4.33,,,0.00,VWS V13.01,2013-05-28 02:46:00,
2013-05-27 22:51:00,63.1,54.1,30.21,West,276,0.0,25.8,72,4.33,,,0.00,VWS V13.01,2013-05-28 02:51:00,
2013-05-27 22:56:00,63.2,54.3,30.21,WSW,256,0.0,25.8,73,4.33,,,0.00,VWS V13.01,2013-05-28 02:56:00,
2013-05-27 23:01:00,63.0,54.2,30.22,SSW,200,1.4,25.8,73,4.33,,,0.00,VWS V13.01,2013-05-28 03:01:00,
2013-05-27 23:06:00,63.0,54.3,30.22,SW,231,0.0,25.8,73,4.33,,,0.00,VWS V13.01,2013-05-28 03:06:00,
2013-05-27 23:11:00,62.8,54.2,30.22,West,280,2.0,25.8,74,4.33,,,0.00,VWS V13.01,2013-05-28 03:11:00,
2013-05-27 23:16:00,62.7,54.2,30.22,WSW,249,0.0,25.8,74,4.33,,,0.00,VWS V13.01,2013-05-28 03:16:00,
2013-05-27 23:21:00,62.4,54.1,30.22,West,259,0.0,25.8,74,4.33,,,0.00,VWS V13.01,2013-05-28 03:21:00,
2013-05-27 23:26:00,62.4,54.2,30.22,West,264,0.0,25.8,74,4.33,,,0.00,VWS V13.01,2013-05-28 03:26:00,
2013-05-27 23:31:00,62.5,54.3,30.23,WNW,294,0.0,25.8,74,4.33,,,0.00,VWS V13.01,2013-05-28 03:31:00,
2013-05-27 23:36:00,62.3,54.2,30.23,WSW,257,0.0,25.8,75,4.33,,,0.00,VWS V13.01,2013-05-28 03:36:00,
2013-05-27 23:41:00,62.3,54.3,30.23,SW,233,0.0,25.8,75,4.33,,,0.00,VWS V13.01,2013-05-28 03:41:00,
2013-05-27 23:46:00,61.9,54.0,30.23,West,262,0.0,25.8,75,4.33,,,0.00,VWS V13.01,2013-05-28 03:46:00,
2013-05-27 23:51:00,61.9,54.1,30.23,West,266,0.0,25.8,76,4.33,,,0.00,VWS V13.01,2013-05-28 03:51:00,
2013-05-27 23:56:00,62.0,54.4,30.23,SW,228,0.0,25.8,76,4.33,,,0.00,VWS V13.01,2013-05-28 03:56:00,